Regional Weather Roundup
Issued by NWS

Home | Current Version | Previous Version | Graphics & Text | Print | Product List | Glossary On
Versions: 1 2 3 4 5 6 7 8 9 10 11 12 13 14 15 16 17 18 19 20 21 22 23 24 25 26 27 28 29 30 31 32 33 34 35 36 37 38 39 40 41 42 43 44 45 46 47 48 49 50
214
ASUS45 KSLC 020710
RWRUT

UTAH REGIONAL WEATHER ROUNDUP
NATIONAL WEATHER SERVICE SALT LAKE CITY UT
100 AM MDT MON MAY 02 2016

UTZ001>011-023>025-020800-

NORTHERN UTAH

CITY           SKY/WX    TMP DP  RH WIND       PRES   REMARKS
BRIGHAM CITY   PTCLDY    50  24  35 E16G24    30.15S
HILL AFB       PTCLDY    48  26  41 E20G29    30.12F
LOGAN          CLEAR     48  25  40 E22G28    30.18S
OGDEN          PTCLDY    49  26  41 E14       30.12S
PROVO AIRPORT  PTCLDY    48  28  46 NW10      30.12R
SALT LAKE CITY PTCLDY    49  30  48 SW3       30.12R
VERNAL         CLEAR     41  24  51 N3        30.19R
WENDOVER       PTCLDY    45  34  65 CALM      30.13S
HEBER CITY     PTCLDY    36  28  75 E3        30.17R

$$

UTZ012>022-026-027-020800-

SOUTHERN/CENTRAL UTAH

CITY           SKY/WX    TMP DP  RH WIND       PRES   REMARKS
BLANDING       CLOUDY    43  39  87 CALM      30.27R
BRYCE CANYON   CLOUDY    38  33  82 CALM      30.20R
CEDAR CITY     MOCLDY    45  38  76 NE6       30.11S
DELTA          CLEAR     45  32  61 N6        30.11R
HANKSVILLE     PTCLDY    50  37  62 S3        30.15S
MILFORD        CLOUDY    50  35  56 N8        30.11R
MOAB/CYNLANDS  CLOUDY    50  39  66 SE6       30.13S
PRICE          PTCLDY    43  26  51 NW3       30.16R
ST GEORGE      MOSUNNY   55  43  62 E3        30.08S

$$

REGIONAL REPORTS     COLORADO/ARIZONA

CITY           SKY/WX    TMP DP  RH WIND       PRES   REMARKS
CRAIG, CO      CLOUDY    36  27  69 SW5       30.19R WCI  32
GRAND JUNCTION CLOUDY    48  38  68 SE13      30.16R
RIFLE          CLOUDY    45  39  79 E5        30.18R
MONTROSE       LGT RAIN  43  37  79 SE7       30.21S
CORTEZ         CLOUDY    43  39  86 CALM      30.21R
PAGE, AZ       CLOUDY    52  41  66 CALM      30.13R
GRAND CANYON   CLEAR     40  33  76 E5        30.17R
KINGMAN        CLEAR     50  32  50 SE8       30.04R
FLAGSTAFF      CLEAR     31  31 100 CALM      30.18R

$$

REGIONAL REPORTS    NEVADA/IDAHO/WYOMING

CITY           SKY/WX    TMP DP  RH WIND       PRES   REMARKS
LAS VEGAS, NV  PTCLDY    63  44  50 S6        29.95R
ELY            CLEAR     31  28  89 S6        30.17R WCI  25
ELKO           PTCLDY    43  31  62 E5        30.13R
POCATELLO, ID  CLEAR     43  28  55 NW6       30.16R
BURLEY         CLEAR     45  36  70 CALM      30.12R
EVANSTON, WY   CLEAR     32  22  66 E16       30.23S WCI  21
ROCK SPRINGS   CLEAR     32  23  69 E14       30.25S WCI  22

$$




USA.gov is the U.S. government's official web portal to all federal, state and local government web resources and services.